Simultaneous Nadir Overpasses (SNOs) Predictions

Prediction of SNOs over PacNW region [( 10.00, 139.50) to ( 22.70, 165.60)] between NOAA-19 and NPP Satellites:

Table of predicted SNOs over PacNW region for the next 30.0 days since TLE Epoch: 2/3/2014
Index Date (NOAA-19) Time (NOAA-19) NOAA-19 Lat,Lon Date (NPP) Time (NPP) NPP Lat,Lon Distance(km) Time Diff (sec)
1 02/08/2014 03:01:44 17.20, 158.29 02/08/2014 03:03:18 16.12, 153.65 509.10 94
2 02/08/2014 15:38:12 13.94, 154.18 02/08/2014 15:35:43 14.75, 150.41 415.94 149
3 02/20/2014 15:04:49 22.59, 164.14 02/20/2014 15:07:59 23.80, 158.97 545.34 190
4 02/21/2014 04:03:23 22.65, 142.03 02/21/2014 04:02:15 21.82, 138.00 425.84 68




NCC Satellite Simultaneous Nadir Overpasses (SNOs) Prediction Service
